Regional Weather Roundup
Issued by NWS

Home | Current Version | Previous Version | Graphics & Text | Print | Product List | Glossary On
Versions: 1 2 3 4 5 6 7 8 9 10 11 12 13 14 15 16 17 18 19 20 21 22 23 24 25 26 27 28 29 30 31 32 33 34 35 36 37 38 39 40 41 42 43 44 45 46 47 48 49 50
538
ASUS43 KMPX 291410
RWRMN
WEATHER ROUNDUP FOR MINNESOTA
NATIONAL WEATHER SERVICE TWIN CITIES/CHANHASSEN MN
900 AM CDT SAT APR 29 2017


NOTE: "FAIR" INDICATES FEW OR NO CLOUDS BELOW 12,000 FEET WITH NO
SIGNIFICANT WEATHER AND/OR OBSTRUCTIONS TO VISIBILITY. N/A MEANS
CURRENT SKY AND/OR WEATHER CONDITIONS ARE NOT AVAILABLE.

MNZ060>063-068>070-291500-
   Twin Cities Metro

CITY           SKY/WX    TMP DP  RH WIND       PRES   REMARKS
TWIN CITIES    CLOUDY    41  25  53 E10       30.30S
ST PAUL        CLOUDY    41  27  57 E7        30.32S
CRYSTAL        PTSUNNY   41  23  48 E9        30.30S
BLAINE         PTSUNNY   43  28  56 E7        30.31R
LAKEVILLE      CLOUDY    37  28  70 NE10      30.29R
EDEN PRAIRIE   CLOUDY    42  26  53 E7        30.29R
SOUTH ST PAUL  CLOUDY    41  25  53 E8        30.30S
LAKE ELMO      FAIR      41  30  65 NE10      30.31S
$$
MNZ001>005-007-008-013>017-022>024-027-028-291500-
   Northwest Minnesota

CITY           SKY/WX    TMP DP  RH WIND       PRES   REMARKS
BEMIDJI        SUNNY     39  25  58 S3        30.31R
HALLOCK        SUNNY     41  25  52 S3        30.32R
ROSEAU         SUNNY     39  28  65 S3        30.32R
WARROAD        SUNNY     39  30  70 CALM      30.31R
THIEF RVR FALL SUNNY     41  20  43 SE3       30.32R
CROOKSTON      SUNNY     39  25  56 CALM      30.33R
FOSSTON        SUNNY     37  25  60 CALM      30.32R
DETROIT LAKES  SUNNY     43  28  56 S6        30.34R
MOORHEAD       SUNNY     39  28  65 S3        30.34R
PARK RAPIDS    SUNNY     41  27  57 S3        30.32R
MAHNOMEN       FAIR      39  26  58 S6        30.33R
$$
MNZ006-009>011-018-025>026-291500-
   North Central Minnesota

CITY           SKY/WX    TMP DP  RH WIND       PRES   REMARKS
BAUDETTE       SUNNY     40  25  55 VRB3      30.30R
FLAG ISLAND    SUNNY     37  25  60 CALM      30.29R
INTL FALLS     SUNNY     40  25  55 E5        30.30R
WASKISH        SUNNY     39  27  60 CALM      30.30S
BIG FORK       SUNNY     41  25  52 CALM      30.30R
LONGVILLE      SUNNY     41  28  60 CALM      30.32R
GRAND RAPIDS   SUNNY     41  23  48 S3        30.34R
CRANE LAKE     SUNNY     37  25  60 CALM      30.31S
ORR            SUNNY     39  19  45 CALM      30.28R
COOK           SUNNY     39  25  56 SE3       30.31R
WALKER         FAIR      39  28  66 CALM      30.33R
$$
MNZ012-019>021-037-291500-
   Northeast Minnesota

CITY           SKY/WX    TMP DP  RH WIND       PRES   REMARKS
DULUTH         SUNNY     41  23  48 SE8       30.32R
ELY            SUNNY     37  21  52 N3        30.30R
HIBBING        SUNNY     37  26  64 SE5       30.31R
EVELETH        SUNNY     39  21  48 S3        30.32R
DULUTH HARBOR  SUNNY     39  28  65 CALM      30.36R
TWO HARBORS    SUNNY     46  27  46 E9        30.32R
SILVER BAY     SUNNY     43  19  39 E8        30.32R
GRAND MARAIS     N/A     42  21  43 NE6       30.35R
G MARAIS ARPRT SUNNY     34  16  47 NE6       30.31R WCI  29
$$
MNZ029>031-032-039>041-046>048-054>057-064-291500-
   West Central Minnesota

CITY           SKY/WX    TMP DP  RH WIND       PRES   REMARKS
FERGUS FALLS   CLOUDY    43  27  52 S8        30.35R
WHEATON        MOSUNNY   39  27  60 SE6       30.37R
MORRIS         CLOUDY    43  28  56 SE9       30.34R
ALEXANDRIA     MOSUNNY   41  25  53 SE12      30.35R
ELBOW LAKE     FAIR      42  26  54 E9        30.35R
WADENA         SUNNY     37  27  65 SE5       30.34R
GLENWOOD       CLOUDY    39  27  60 SE8       30.35R
APPLETON       MOSUNNY   43  27  52 SE7       30.34R
BENSON         CLOUDY    45  23  42 SE9       30.35R
ORTONVILLE     MOSUNNY   41  27  56 SE7       30.34R
MADISON        MOSUNNY   43  28  56 SE8       30.34R
WILLMAR        FAIR      43  28  56 E12       30.34R
$$
MNZ033>034-036-042>043-049>051-058-059-291500-
   Central Minnesota

CITY           SKY/WX    TMP DP  RH WIND       PRES   REMARKS
ST CLOUD       CLOUDY    41  26  55 SE12      30.34R
SAUK CENTRE    FAIR      40  27  61 SE8       30.35R
PAYNESVILLE    MOSUNNY   41  27  57 E9        30.34R
AITKIN         MOSUNNY   43  25  49 SE3       30.33R
PINE RIVER     SUNNY     39  28  65 CALM      30.36R
BRAINERD       MOSUNNY   41  27  57 S7        30.35R
STAPLES        SUNNY     39  27  60 S6        30.34R
LONG PRAIRIE   FAIR      37  27  65 E8        30.35R
LITTLE FALLS   MOSUNNY   39  27  60 SE9       30.35R
LITCHFIELD     MOSUNNY   41  30  65 E5        30.32R
BUFFALO        CLOUDY    40  27  59 NE7       30.33R
MAPLE LAKE     CLOUDY    42  29  61 E7        30.33S
HUTCHINSON     SUNNY     41  29  64 NE9       30.31S
$$
MNZ037-044-045-052-053-291500-
   East Central Minnesota

CITY           SKY/WX    TMP DP  RH WIND       PRES   REMARKS
PRINCETON      MOSUNNY   43  27  52 SE7       30.33R
MORA           SUNNY     39  28  65 S5        30.37R
CAMBRIDGE      MOSUNNY   43  28  56 E7        30.32R
RUSH CITY      MOSUNNY   40  27  59 E3        30.34R
MOOSE LAKE     SUNNY     41  28  60 CALM      30.32R
HINCKLEY       FAIR      41  28  60 E5        30.35R
CLOQUET        SUNNY     41  19  42 SE3       30.33R
MCGREGOR       SUNNY     41  28  60 SE5       30.34R
$$
MNZ071>073-080-081-089-090-097-098-291500-
   Southwest Minnesota

CITY           SKY/WX    TMP DP  RH WIND       PRES   REMARKS
MONTEVIDEO     MOSUNNY   43  27  52 SE13      30.33R
GRANITE FALLS  PTSUNNY   42  29  60 E9        30.33R
CANBY          CLOUDY    41  28  60 CALM      30.34R
MARSHALL       MOSUNNY   39  28  64 E9        30.31R
REDWOOD FALLS  CLOUDY    41  27  57 E10       30.31R
OLIVIA         CLOUDY    41  28  60 E10       30.31R
PIPESTONE      PTSUNNY   39  25  56 E8        30.26F
WINDOM         CLOUDY    39  30  70 NE13      30.27R
WORTHINGTON    CLOUDY    39  29  67 NE17      30.26R
JACKSON        PTSUNNY   37  32  81 NE16      30.25R
TRACY          CLOUDY    40  31  71 E9        30.30R
SLAYTON        PTSUNNY   37  29  73 NE13      30.28R
$$
MNZ065>067-074>077-082>085-091>093-291500-
   South Central Minnesota

CITY           SKY/WX    TMP DP  RH WIND       PRES   REMARKS
MANKATO        CLOUDY    39  28  64 E13       30.28R
NEW ULM        CLOUDY    39  28  65 E6        30.29R
ST JAMES       CLOUDY    39  30  70 NE14      30.28R
FAIRMONT       CLOUDY    38  31  76 NE13      30.26R
GLENCOE        PTSUNNY   41  31  67 NE7       30.29S
FARIBAULT      CLOUDY    39  28  65 NE9       30.28R
OWATONNA       CLOUDY    39  27  60 E13G20    30.26S
WASECA         CLOUDY    37  30  75 NE13G20   30.28R
ALBERT LEA     PTSUNNY   37  28  70 E14G20    30.24F
$$
MNZ078>079-086>088-094>096-291500-
   Southeast Minnesota

CITY           SKY/WX    TMP DP  RH WIND       PRES   REMARKS
ROCHESTER      CLOUDY    40  30  67 E14       30.25R
RED WING       CLOUDY    43  23  45 E9G18     30.29R
STANTON        CLOUDY    41  29  62 E12       30.27S
DODGE CENTER   CLOUDY    39  30  70 E13G21    30.25S
WINONA         CLOUDY    43  28  56 E12       30.28F
AUSTIN         CLOUDY    39  28  65 E13G18    30.23F
PRESTON        MOSUNNY   39  28  63 NE10      30.24F
$$
ABBREVIATIONS USED IN REMARKS
   TC - TEMPERATURES IN CELSIUS
  WCI - WIND CHILL INDEX
   HX - HEAT INDEX
  VSB - VISIBILITY
$$




USA.gov is the U.S. government's official web portal to all federal, state and local government web resources and services.